Tracking 25710 objects as of 6-Jul-2022
HD Live streaming from Space Station
objects crossing your sky now

FENGYUN 1C DEB

Track FENGYUN 1C DEB now!
10-day predictions


NORAD ID: 31316
Int'l Code: 1999-025BPU
Perigee: 777.6 km
Apogee: 945.0 km
Inclination: 98.9 °
Period: 102.0 minutes
Semi major axis: 7232 km
RCS: 0.0146 m2 (small)
Launch date: May 10, 1999
Source: People's Republic of China (PRC)
Launch site: Taiyaun Space Center, China (TSC)

Note: This is SATELLITE DEBRIS
aabbcc
Your satellite tracking list
Your tracking list is empty




NASA's NSSDC Master Catalog

Two Line Element Set (TLE):
1 31316U 99025BPU 22177.40906138  .00001764  00000-0  93632-3 0  9993
2 31316  98.9178 241.6611 0115726 247.6796 111.2075 14.11510933464270
Source of the keplerian elements: AFSPC